GFSNIL_con_3kmhel_192.txt.gz
Helicity
264 261 233 203 179 149 114 159 138 145 160 159 177 140 152 179 168 133 112 100 79 50
248 238 223 192 209 174 185 168 155 153 180 183 160 155 170 157 165 126 68 32 23 20
254 243 245 267 257 238 180 177 163 175 193 183 192 179 171 143 126 110 70 43 36 40
308 309 276 280 274 261 219 185 181 170 182 194 191 171 162 135 108 108 102 89 85 87
327 374 375 279 252 237 217 187 174 177 194 185 179 161 160 146 105 98 106 88 101 84
355 342 363 291 241 247 232 217 201 185 193 193 184 170 169 164 133 112 93 86 82 72
377 360 308 341 273 203 216 229 208 194 195 199 191 194 183 163 137 119 103 99 87 69
431 354 297 269 269 275 228 233 207 234 213 184 185 165 173 144 122 118 113 109 103 66
431 360 321 255 284 256 280 272 258 236 219 206 171 132 139 137 127 112 102 101 100 81
472 388 326 271 257 268 295 300 262 249 225 200 167 151 147 145 133 123 105 101 98 88
491 401 324 286 263 288 310 301 267 221 234 227 152 147 149 166 164 138 116 100 88 87
463 425 343 288 299 307 345 304 250 222 195 178 128 125 141 172 159 142 136 126 104 92
389 351 302 343 380 328 246 260 278 189 209 112 95 105 117 138 148 136 127 119 95 75
281 284 306 341 316 244 267 288 216 184 173 86 94 96 94 101 121 109 117 108 107 91

GFSNIL_con_3kmhel_198.txt.gz
Helicity
119 130 143 131 128 121 100 95 76 94 82 100 83 82 102 121 130 135 134 149 171 195
199 208 161 144 134 111 115 99 98 92 101 91 80 90 98 110 108 116 112 127 143 151
134 162 208 181 154 115 101 111 110 105 104 77 79 89 99 104 89 124 110 121 129 116
127 135 113 148 178 175 136 132 111 99 72 63 87 94 112 117 100 134 147 133 102 91
253 254 208 201 177 178 143 161 149 107 87 100 116 108 115 94 122 144 139 121 102 84
315 270 229 183 189 198 206 177 147 133 116 123 124 129 121 109 129 133 122 109 98 89
357 272 270 271 250 263 215 179 150 136 147 129 125 120 142 129 143 149 138 110 97 88
335 288 321 317 286 311 272 242 214 211 236 175 156 116 162 154 155 155 165 130 93 86
312 251 309 333 295 337 303 319 298 288 302 126 131 134 161 192 189 158 159 145 111 78
319 299 275 286 307 318 333 336 294 206 158 88 174 150 165 205 204 124 144 146 144 125
270 260 273 296 313 378 317 310 233 195 121 157 175 168 181 189 252 126 136 128 132 108
180 218 254 326 385 462 400 299 208 180 172 210 226 179 172 240 214 137 109 125 115 82
159 217 239 290 380 470 385 300 237 198 195 207 218 149 196 234 227 167 122 117 101 59
148 200 212 300 327 370 282 260 240 208 232 215 193 183 158 174 232 150 128 110 111 79

GFSNIL_con_3kmhel_201.txt.gz
Helicity
6 135 128 90 146 110 109 120 98 84 75 84 88 101 115 114 111 105 108 130 149 161
-27 28 89 70 113 138 138 122 112 80 73 68 86 110 116 124 110 105 116 131 139 137
42 68 111 129 106 104 146 132 88 73 68 64 87 107 105 102 117 131 122 117 118 129
94 132 166 175 129 122 101 96 89 69 95 111 109 104 98 106 109 114 117 127 129 80
134 108 95 137 154 179 167 111 87 96 59 119 91 97 93 85 91 106 124 137 124 49
192 201 140 96 123 185 194 203 178 144 98 148 104 82 79 93 99 94 115 124 131 53
139 156 188 126 101 197 239 234 203 143 139 127 112 84 91 114 127 108 103 121 146 73
144 165 169 155 171 229 279 280 258 254 222 224 161 163 139 116 108 114 117 159 146 123
203 216 209 191 233 298 295 340 291 291 261 231 221 212 203 156 96 95 114 158 183 120
141 139 171 179 232 240 322 345 286 300 265 196 182 118 84 100 101 106 145 140 170 142
100 106 178 214 238 244 327 357 341 221 197 174 127 96 125 168 186 156 151 156 171 143
96 110 126 207 292 274 352 343 336 203 176 154 124 130 146 157 160 161 164 192 132 120
121 137 125 199 210 263 333 352 323 218 138 133 127 130 149 163 175 184 188 157 113 103
85 127 139 194 184 220 257 316 233 180 139 146 140 168 171 167 181 177 165 151 133 108

GFSNIL_con_3kmhel_207.txt.gz
Helicity
106 158 141 138 166 199 209 219 253 303 331 378 402 420 394 255 159 96 119 84 105 103
106 123 174 139 128 170 240 275 273 243 254 293 343 333 289 178 120 66 80 82 78 117
124 145 102 180 212 221 215 201 198 193 172 174 172 166 188 208 60 42 35 60 100 92
144 188 113 99 102 126 228 249 160 130 88 57 71 113 113 89 66 36 62 97 81 70
196 155 88 78 168 214 243 214 185 185 146 119 100 65 61 54 38 46 71 88 78 93
88 136 97 136 153 183 207 209 275 210 166 170 128 134 74 67 76 97 103 81 70 103
90 104 120 127 145 194 190 173 201 193 121 117 158 163 163 129 149 169 147 135 130 138
73 83 170 195 158 194 207 254 251 216 202 199 165 182 191 174 223 177 261 213 150 155
71 89 114 167 216 189 217 214 242 230 196 224 215 263 268 228 187 199 194 209 236 182
68 82 135 161 182 202 240 250 281 266 248 342 317 229 205 199 191 212 225 251 372 215
73 67 105 151 175 168 224 220 289 206 215 289 334 224 198 189 187 167 160 167 208 258
80 60 72 108 157 174 259 219 196 241 273 334 293 250 213 222 183 141 117 137 163 208
65 40 72 118 132 171 236 263 223 212 290 348 298 178 136 139 103 130 155 157 117 114
57 51 66 103 132 158 196 232 235 242 245 243 181 141 99 76 110 130 154 144 140 118